Location: Richterswil
(47.2055°N, 8.7071°E)
Time: 18:08:01
(UTC+00:00)

STARLINK-1364 - Pass Details

Date: 07 June 2020
Orbit: 379 x 381 km, 53.0° (Epoch: 13 July)

Event Time Altitude Azimuth Distance (km) Brightness Sun altitude
Rises 01:29:21 0° 298° (WNW) 2,262 6.7 -14.5°
Reaches altitude 10° 01:31:29 10° 306° (NW) 1,406 5.8 -14.4°
Maximum altitude 01:34:29 40° 18° (NNE) 578 4.3 -14.1°
Drops below altitude 10° 01:37:28 10° 90° (E) 1,401 6.1 -13.8°
Sets 01:39:31 0° 98° (E) 2,225 7.1 -13.6°
